Weather History for KMIE - June, 2013

Change the Weather History Date:

Saturday, June 1, 2013

  Actual Average Record
Temperature  
Mean Temperature 70 °F 67 °F  
Max Temperature 76 °F 77 °F 93 °F (1988)
Min Temperature 64 °F 57 °F 41 °F (2003)
Degree Days  
Heating Degree Days 0 2  
Month to date heating degree days 0 2  
Since 1 June heating degree days 0 2  
Since 1 July heating degree days 5366 5761  
Cooling Degree Days 5 4  
Month to date cooling degree days 5 4  
Year to date cooling degree days 173 87  
Since 1 June cooling degree days 5 4  
Growing Degree Days 20 (Base 50)    
Moisture  
Dew Point 63 °F    
Average Humidity 79    
Maximum Humidity 93    
Minimum Humidity 64    
Precipitation  
Precipitation 0.59 in 0.16 in 1.10 in (1980)
Month to date precipitation 0.59 0.16  
Year to date precipitation 16.40 15.73  
Sea Level Pressure  
Sea Level Pressure 29.84 in    
Wind  
Wind Speed 10 mph (SW)    
Max Wind Speed 21 mph    
Max Gust Speed 26 mph    
Visibility 8 miles    
Events Rain , Thunderstorm    
T = Trace of Precipitation, MM = Missing Value Source: NWS Daily Summary

Daily Weather History Graph

Daily Weather History Graph

Search for Another Location

Airport or City:

Trip Planner

Search our weather history database for the weather conditions in past years. The results will help you decide how hot, cold, wet, or windy it might be!

Date:

Astronomy

Jun. 01, 2013 Rise Set
Actual Time 6:14 AM EDT 9:05 PM EDT
Civil Twilight 5:41 AM EDT 9:37 PM EDT
Nautical Twilight 5:01 AM EDT 10:18 PM EDT
Astronomical Twilight 4:14 AM EDT 11:05 PM EDT
Moon 2:10 AM EDT (6/1) 2:33 PM EDT (6/1)
Length of Visible Light 15h 55m
Length of Day
14h 51m
Last Quarter, 41% of the Moon is Illuminated
Jun 1
Last Quarter
Jun 8
New
Jun 16
First Quarter
Jun 23
Full
Jun 30
Last Quarter

Hourly Weather History & Observations

Time (EDT) Temp. Dew Point Humidity Pressure Visibility Wind Dir Wind Speed Gust Speed Precip Events Conditions
12:53 AM 72.0 °F 68.0 °F 87% 29.88 in 10.0 mi South 8.1 mph - N/A   Clear
1:53 AM 73.0 °F 68.0 °F 84% 29.86 in 10.0 mi SSW 11.5 mph 21.9 mph N/A   Mostly Cloudy
2:53 AM 73.0 °F 66.9 °F 81% 29.84 in 10.0 mi South 12.7 mph 21.9 mph N/A   Scattered Clouds
3:50 AM 68.0 °F 60.8 °F 78% 29.90 in 9.0 mi West 13.8 mph 25.3 mph 0.00 in Rain , Thunderstorm Light Rain
3:53 AM 66.9 °F 61.0 °F 81% 29.86 in 7.0 mi WNW 13.8 mph 19.6 mph 0.01 in Rain , Thunderstorm Light Rain
4:05 AM 64.4 °F 62.6 °F 94% 29.88 in 3.0 mi WNW 10.4 mph 21.9 mph 0.06 in Rain Rain
4:15 AM 64.4 °F 62.6 °F 94% 29.88 in 4.0 mi WSW 8.1 mph - 0.10 in Rain , Thunderstorm Thunderstorms and Rain
4:24 AM 64.4 °F 62.6 °F 94% 29.89 in 1.8 mi WSW 8.1 mph - 0.21 in Rain , Thunderstorm Heavy Thunderstorms and Rain
4:31 AM 64.4 °F 62.6 °F 94% 29.88 in 2.0 mi WSW 5.8 mph - 0.23 in Rain Rain
4:40 AM 64.4 °F 62.6 °F 94% 29.88 in 8.0 mi SW 4.6 mph - 0.23 in Rain Light Rain
4:49 AM 64.4 °F 62.6 °F 94% 29.89 in 3.0 mi SW 6.9 mph - 0.28 in Rain , Thunderstorm Rain
4:53 AM 64.9 °F 62.1 °F 90% 29.86 in 3.0 mi SW 6.9 mph - 0.29 in Rain , Thunderstorm Light Rain
5:00 AM 64.4 °F 62.6 °F 94% 29.90 in 2.5 mi SW 5.8 mph - 0.05 in Rain Rain
5:16 AM 64.4 °F 62.6 °F 94% 29.90 in 7.0 mi SW 6.9 mph - 0.10 in Rain , Thunderstorm Light Rain
5:37 AM 64.4 °F 62.6 °F 94% 29.89 in 4.0 mi West 4.6 mph - 0.17 in Rain Rain
5:53 AM 64.0 °F 62.1 °F 93% 29.88 in 6.0 mi WSW 3.5 mph - 0.20 in Rain Light Rain
6:53 AM 64.0 °F 63.0 °F 96% 29.86 in 10.0 mi SSE 4.6 mph - 0.06 in   Mostly Cloudy
7:53 AM 64.0 °F 63.0 °F 96% 29.85 in 7.0 mi SSE 6.9 mph - 0.01 in Rain Light Rain
8:53 AM 64.9 °F 62.1 °F 90% 29.82 in 10.0 mi SSE 11.5 mph 17.3 mph 0.01 in Rain Light Rain
9:53 AM 66.9 °F 62.1 °F 84% 29.80 in 10.0 mi WSW 3.5 mph - 0.01 in   Overcast
10:53 AM 68.0 °F 63.0 °F 84% 29.81 in 10.0 mi SSW 9.2 mph - 0.00 in Rain Light Rain
11:53 AM 73.0 °F 64.9 °F 76% 29.84 in 10.0 mi WSW 13.8 mph 20.7 mph N/A   Mostly Cloudy
12:38 PM 73.4 °F 62.6 °F 69% 29.87 in 10.0 mi WSW 12.7 mph 23.0 mph N/A   Mostly Cloudy
12:53 PM 72.0 °F 62.1 °F 71% 29.85 in 10.0 mi WSW 19.6 mph 26.5 mph N/A   Mostly Cloudy
1:53 PM 73.0 °F 62.1 °F 68% 29.81 in 10.0 mi SW 11.5 mph 21.9 mph N/A   Partly Cloudy
2:53 PM 73.9 °F 64.0 °F 71% 29.79 in 10.0 mi South 13.8 mph 19.6 mph N/A   Clear
3:53 PM 73.9 °F 64.9 °F 73% 29.80 in 10.0 mi Variable 5.8 mph - 0.00 in Rain Light Rain
4:53 PM 75.9 °F 64.9 °F 69% 29.78 in 10.0 mi SW 9.2 mph 17.3 mph 0.00 in   Mostly Cloudy
5:53 PM 75.9 °F 63.0 °F 64% 29.78 in 10.0 mi SW 10.4 mph 18.4 mph N/A   Partly Cloudy
6:53 PM 75.0 °F 64.0 °F 69% 29.77 in 10.0 mi SW 10.4 mph 17.3 mph N/A   Overcast
7:53 PM 73.9 °F 64.0 °F 71% 29.76 in 10.0 mi SSW 8.1 mph - N/A   Overcast
8:53 PM 73.0 °F 63.0 °F 71% 29.76 in 10.0 mi SSW 8.1 mph 18.4 mph N/A   Overcast
9:53 PM 71.1 °F 64.0 °F 78% 29.75 in 10.0 mi SW 5.8 mph - N/A   Mostly Cloudy
10:53 PM 70.0 °F 61.0 °F 73% 29.77 in 10.0 mi WSW 9.2 mph 16.1 mph N/A   Scattered Clouds
11:53 PM 68.0 °F 62.1 °F 81% 29.77 in 10.0 mi SW 10.4 mph - N/A   Partly Cloudy